Погода в Яйлю

Россия / Республика Алтай     51°46′08″N   87°36′11″E
темп.,
°C
ветер,
м/с
пор.,
м/с
влажн.,
%
обл.,
%
осадки,
мм/ч
давл.,
гПа
погр.,
м
16 апреля, пт
пт1601:00+1ююв219568 0.0 102530
04:000ююв229345 0.0 102432
07:000ююв238879 0.0 102457
10:00+8ююв11665 0.0 1020439
13:00+11ссз235872 0.0 10181373
16:00+11ссз226211 0.0 10161008
19:00+8ссз22832 0.1 101761
22:00+3ююв22965 0.0 101917
17 апреля, сб
сб1701:00+2ююв22968 0.0 101833
04:00+2ююв339469 0.0 101742
07:00+2ююв238869 0.1 101659
10:00+7сз2376100 0.0 1015679
13:00+4ссз2495100 2.3 1016629
16:00+3сз2399100 2.7 1018530
19:000сз2299100 5.1 1021107
22:00−1сз1297100 0.6 1023222
18 апреля, вс
вс1801:00−1ссз1096100 0.9 1023302
04:00−1ююз0187100 0.0 1021278
07:00−2зсз019432 0.0 102167
10:00+3сз117717 0.0 1018474
13:00+7ссз236976 0.0 1014906
16:00+6ссз337553 0.1 1013702
19:00+4с11859 0.1 1013262
22:00+2юв229396 0.0 101346
19 апреля, пн
пн1901:00+5ююз4135934 0.0 1008453
04:00+5юз367198 0.1 1006140
07:00−2сз41198100 6.8 10141096
10:00−4сз3990100 4.9 10211180
13:00−3сз2482100 6.0 10231024
16:00−3сз3386100 0.8 1023933
19:00−5ссз2391100 1.6 1024532
22:00−7сз1298100 0.6 1026154
20 апреля, вт
вт2001:00−7зсз1197100 1.1 1026130
04:00−8зюз1197100 0.4 102781
07:00−8ссз2394100 1.6 1027396
10:00−6ссз2282100 0.6 1027976
13:00−4ссз2279100 1.2 10261257
16:00−4ссз3379100 0.7 10251131
19:00−5ссз237798 1.0 1026854
22:00−11ююв119291 0.1 102810